Weather in Zeledeyevo

Russia / Kemerovo Oblast     56°02′19″N   84°52′22″E
temp.,
°C
wind,
m/s
gust,
m/s
humid.,
%
clouds,
%
prec.,
mm/h
press.,
hPa
HPBL,
m
5 march, fri
fri501:00−4ssw81688100 0.7 1014648
04:00−7ssw71585100 0.0 1013475
07:00−8s61483100 0.0 1012530
10:00−6ssw71580100 0.1 1011654
13:00−4ssw81492100 0.6 1009866
16:00−3sw81485100 0.8 10091072
19:00−5sw81686100 0.9 1013918
22:00−6sw71592100 0.1 1014911
6 march, sat
sat601:00−5sw81691100 0.4 10141088
04:00−5sw71490100 0.3 1013890
07:00−5sw91591100 0.8 1014884
10:00−5ssw91692100 0.8 1013939
13:00−5sw101687100 1.2 10111120
16:00−5sw91592100 0.4 10101069
19:00−5sw91589100 1.4 10091028
22:00−4sw81689100 0.1 1008935
7 march, sun
sun701:00−3sw71590100 0.2 1008793
04:00−3sw71494100 0.3 1008753
07:00−6wsw61284100 1.5 1011727
10:00−9wsw612850 0.0 1014575
13:00−7wsw610823 0.0 1017912
16:00−7wsw6982100 0.1 10181153
19:00−10sw4888100 0.1 1021172
22:00−13sw479135 0.0 1022138
8 march, mon
mon801:00−13s348564 0.0 102362
04:00−12sse4886100 0.0 1020168
07:00−10sse61392100 0.0 1016322
10:00−5s71589100 0.0 1012611
13:00−1s81481100 0.0 1008704
16:000ssw81679100 0.0 1005835
19:00−2sw81681100 0.0 1003949
22:00−2sw81689100 0.3 10061067
9 march, tue
tue901:00−10wsw6138995 0.4 1012592
04:00−12wsw51292100 0.1 1017510
07:00−13sw61291100 0.1 1020531
10:00−13sw61189100 0.0 1022543
13:00−10sw6108573 0.0 1023631
16:00−7sw6108572 0.0 1023712
19:00−10ssw499068 0.0 1022181
22:00−11s499274 0.0 1021194